This is the latest recevied weather packets stored in our database for station/object KN6DHD. If no packets are shown the sender has not sent any weather packets the latest 10 day(s).
| Time | Temp. | Humidity | Pressure | Rain* | Wind** | Luminosity | Snow |
|---|---|---|---|---|---|---|---|
| 1778007879 | 17.22° C | 78% | 1016.5 hPa | 0 mm | - | 745 W/m² | - |
| 1778007575 | 17.22° C | 78% | 1016.5 hPa | 0 mm | - | 225 W/m² | - |
| 1778007273 | 17.22° C | 80% | 1016.4 hPa | 0 mm | - | 196 W/m² | - |
| 1778006968 | 17.78° C | 78% | 1016.6 hPa | 0 mm | - | 254 W/m² | - |
| 1778006666 | 17.22° C | 80% | 1016.3 hPa | 0 mm | - | 285 W/m² | - |
| 1778006362 | 16.67° C | 79% | 1016.6 hPa | 0 mm | - | 296 W/m² | - |
| 1778006059 | 16.67° C | 81% | 1016.5 hPa | 0 mm | - | 320 W/m² | - |
| 1778005756 | 16.11° C | 81% | 1016.2 hPa | 0 mm | - | 294 W/m² | - |
| 1778005453 | 16.11° C | 82% | 1016.6 hPa | 0 mm | - | 280 W/m² | - |
| 1778005149 | 16.11° C | 84% | 1016.4 hPa | 0 mm | - | 260 W/m² | - |
| 1778004847 | 15.56° C | 84% | 1016.3 hPa | 0 mm | - | 277 W/m² | - |
| 1778004543 | 15.56° C | 85% | 1016.4 hPa | 0 mm | - | 251 W/m² | - |
| 1778004240 | 15° C | 85% | 1016.3 hPa | 0 mm | - | 208 W/m² | - |
| 1778003936 | 15.56° C | 85% | 1016.3 hPa | 0 mm | - | 217 W/m² | - |
| 1778003633 | 15° C | 86% | 1016.4 hPa | 0 mm | - | 221 W/m² | - |
| 1778003329 | 15° C | 89% | 1016.2 hPa | 0 mm | - | 233 W/m² | - |
| 1778003027 | 14.44° C | 90% | 1016.2 hPa | 0 mm | - | 215 W/m² | - |
| 1778002723 | 14.44° C | 93% | 1016.3 hPa | 0 mm | - | 196 W/m² | - |
| 1778002419 | 13.89° C | 96% | 1016.3 hPa | 0 mm | - | 145 W/m² | - |
| 1778002117 | 13.89° C | 98% | 1016.2 hPa | 0 mm | - | 150 W/m² | - |
| 1778001814 | 12.78° C | 99% | 1016.5 hPa | 0 mm | - | 147 W/m² | - |
| 1778001514 | 13.33° C | 99% | 1016.1 hPa | 0 mm | - | 140 W/m² | - |
| 1778001211 | 13.33° C | 99% | 1016.4 hPa | 0 mm | - | 139 W/m² | - |
| 1778000907 | 12.78° C | 99% | 1016.2 hPa | 0 mm | - | 152 W/m² | - |
| 1778000604 | 12.78° C | 99% | 1016.3 hPa | 0 mm | - | 133 W/m² | - |
* Rain latest hour (hover to see other rain measurements)
** Current wind speed in m/s (hover to see current wind gust speed)